Time,TemperatureF,DewpointF,PressureIn,WindDirection,WindDirectionDegrees,WindSpeedMPH,WindSpeedGustMPH,Humidity,HourlyPrecipIn,Conditions,Clouds,dailyrainin,SoftwareType,DateUTC
2013-02-19 00:04:00,48.3,37.9,29.96,West,259,7.0,0.0,67,0.00,,,0.00,WeatherTracker,2013-02-19 08:04:00,
2013-02-19 00:09:00,48.4,38.3,29.96,NW,306,2.0,0.0,68,0.00,,,0.00,WeatherTracker,2013-02-19 08:09:00,
2013-02-19 00:14:00,48.4,39.4,29.95,West,274,6.0,0.0,71,0.00,,,0.00,WeatherTracker,2013-02-19 08:14:00,
2013-02-19 00:19:00,48.3,39.7,29.95,SW,235,4.0,0.0,72,0.00,,,0.00,WeatherTracker,2013-02-19 08:19:00,
2013-02-19 00:24:00,48.3,39.7,29.95,WNW,285,4.0,0.0,72,0.00,,,0.00,WeatherTracker,2013-02-19 08:24:00,
2013-02-19 00:29:00,48.1,39.5,29.95,WSW,253,4.0,0.0,72,0.00,,,0.00,WeatherTracker,2013-02-19 08:29:00,
2013-02-19 00:34:00,48.0,39.1,29.95,West,259,3.0,0.0,71,0.00,,,0.00,WeatherTracker,2013-02-19 08:34:00,
2013-02-19 00:39:00,47.9,38.6,29.95,WNW,285,5.0,0.0,70,0.00,,,0.00,WeatherTracker,2013-02-19 08:39:00,
2013-02-19 00:44:00,47.9,38.6,29.95,SW,226,2.0,0.0,70,0.00,,,0.00,WeatherTracker,2013-02-19 08:44:00,
2013-02-19 00:49:00,48.0,39.1,29.95,WSW,250,3.0,0.0,71,0.00,,,0.00,WeatherTracker,2013-02-19 08:49:00,
2013-02-19 00:54:00,48.1,39.5,29.95,SW,228,1.0,0.0,72,0.00,,,0.00,WeatherTracker,2013-02-19 08:54:00,
2013-02-19 00:59:00,48.1,39.9,29.95,WSW,256,14.0,0.0,73,0.00,,,0.00,WeatherTracker,2013-02-19 08:59:00,
2013-02-19 01:04:00,48.1,40.6,29.95,WSW,256,8.0,0.0,75,0.00,,,0.00,WeatherTracker,2013-02-19 09:04:00,
2013-02-19 01:09:00,48.0,40.5,29.96,West,276,4.0,0.0,75,0.00,,,0.00,WeatherTracker,2013-02-19 09:09:00,
2013-02-19 01:14:00,47.9,40.7,29.95,WSW,239,11.0,0.0,76,0.00,,,0.00,WeatherTracker,2013-02-19 09:14:00,
2013-02-19 01:19:00,47.6,40.8,29.96,WSW,256,10.0,0.0,77,0.00,,,0.00,WeatherTracker,2013-02-19 09:19:00,
2013-02-19 01:24:00,47.3,41.1,29.95,WNW,294,4.0,0.0,79,0.00,,,0.00,WeatherTracker,2013-02-19 09:24:00,
2013-02-19 01:29:00,46.9,41.1,29.95,WNW,290,6.0,0.0,80,0.00,,,0.00,WeatherTracker,2013-02-19 09:29:00,
2013-02-19 01:34:00,46.8,41.0,29.95,WSW,248,4.0,0.0,80,0.00,,,0.00,WeatherTracker,2013-02-19 09:34:00,
2013-02-19 01:39:00,46.8,41.0,29.95,West,278,4.0,0.0,80,0.00,,,0.00,WeatherTracker,2013-02-19 09:39:00,
2013-02-19 01:45:00,46.8,40.6,29.95,WNW,284,6.0,0.0,79,0.00,,,0.00,WeatherTracker,2013-02-19 09:45:00,
2013-02-19 01:50:00,46.9,40.4,29.95,West,271,0.0,0.0,78,0.00,,,0.00,WeatherTracker,2013-02-19 09:50:00,
2013-02-19 01:55:00,46.9,40.4,29.95,WSW,250,4.0,0.0,78,0.00,,,0.00,WeatherTracker,2013-02-19 09:55:00,
2013-02-19 02:00:00,47.1,40.6,29.94,WSW,252,4.0,0.0,78,0.00,,,0.00,WeatherTracker,2013-02-19 10:00:00,
2013-02-19 02:05:00,47.1,40.3,29.94,West,267,3.0,0.0,77,0.00,,,0.00,WeatherTracker,2013-02-19 10:05:00,
2013-02-19 02:10:00,47.2,40.4,29.94,West,281,2.0,0.0,77,0.00,,,0.00,WeatherTracker,2013-02-19 10:10:00,
2013-02-19 02:15:00,47.1,40.6,29.94,WSW,249,7.0,0.0,78,0.00,,,0.00,WeatherTracker,2013-02-19 10:15:00,
2013-02-19 02:20:00,47.0,40.8,29.94,WSW,249,3.0,0.0,79,0.00,,,0.00,WeatherTracker,2013-02-19 10:20:00,
2013-02-19 02:25:00,46.9,41.1,29.94,West,263,3.0,0.0,80,0.00,,,0.00,WeatherTracker,2013-02-19 10:25:00,
2013-02-19 02:30:00,46.8,41.0,29.93,WNW,300,3.0,0.0,80,0.00,,,0.00,WeatherTracker,2013-02-19 10:30:00,
2013-02-19 02:35:00,46.8,41.3,29.93,WSW,243,1.0,0.0,81,0.00,,,0.00,WeatherTracker,2013-02-19 10:35:00,
2013-02-19 02:40:00,46.8,41.3,29.93,WSW,240,0.0,0.0,81,0.00,,,0.00,WeatherTracker,2013-02-19 10:40:00,
2013-02-19 02:45:00,46.8,41.3,29.93,WNW,297,2.0,0.0,81,0.00,,,0.00,WeatherTracker,2013-02-19 10:45:00,
2013-02-19 02:50:00,46.7,41.5,29.92,SW,235,2.0,0.0,82,0.00,,,0.00,WeatherTracker,2013-02-19 10:50:00,
2013-02-19 02:55:00,46.7,41.5,29.92,West,274,2.0,0.0,82,0.00,,,0.00,WeatherTracker,2013-02-19 10:55:00,
2013-02-19 03:00:00,46.7,41.5,29.92,WSW,238,3.0,0.0,82,0.00,,,0.00,WeatherTracker,2013-02-19 11:00:00,
2013-02-19 03:05:00,46.8,41.3,29.92,WSW,256,2.0,0.0,81,0.00,,,0.00,WeatherTracker,2013-02-19 11:05:00,
2013-02-19 03:10:00,46.8,41.3,29.92,SW,233,3.0,0.0,81,0.00,,,0.00,WeatherTracker,2013-02-19 11:10:00,
2013-02-19 03:15:00,46.8,41.3,29.92,WNW,291,0.0,0.0,81,0.00,,,0.00,WeatherTracker,2013-02-19 11:15:00,
2013-02-19 03:20:00,46.8,41.3,29.91,WSW,239,0.0,0.0,81,0.00,,,0.00,WeatherTracker,2013-02-19 11:20:00,
2013-02-19 03:25:00,46.7,41.2,29.91,West,266,4.0,0.0,81,0.00,,,0.00,WeatherTracker,2013-02-19 11:25:00,
2013-02-19 03:30:00,46.7,41.2,29.91,WSW,247,2.0,0.0,81,0.00,,,0.00,WeatherTracker,2013-02-19 11:30:00,
2013-02-19 03:35:00,46.7,41.5,29.91,WSW,243,2.0,0.0,82,0.00,,,0.00,WeatherTracker,2013-02-19 11:35:00,
2013-02-19 03:40:00,46.6,41.4,29.91,SW,236,2.0,0.0,82,0.00,,,0.00,WeatherTracker,2013-02-19 11:40:00,
2013-02-19 03:45:00,46.5,41.3,29.91,WSW,250,0.0,0.0,82,0.00,,,0.00,WeatherTracker,2013-02-19 11:45:00,
2013-02-19 03:51:00,46.5,41.3,29.91,WSW,243,1.0,0.0,82,0.00,,,0.00,WeatherTracker,2013-02-19 11:51:00,
2013-02-19 03:56:00,46.4,41.5,29.91,SSW,210,1.0,0.0,83,0.00,,,0.00,WeatherTracker,2013-02-19 11:56:00,
2013-02-19 04:01:00,46.3,41.1,29.91,SSW,210,0.0,0.0,82,0.00,,,0.00,WeatherTracker,2013-02-19 12:01:00,
2013-02-19 04:06:00,46.2,41.3,29.91,WSW,238,0.0,0.0,83,0.00,,,0.00,WeatherTracker,2013-02-19 12:06:00,
2013-02-19 04:11:00,46.2,41.3,29.90,South,177,0.0,0.0,83,0.00,,,0.00,WeatherTracker,2013-02-19 12:11:00,
2013-02-19 04:16:00,46.3,41.7,29.90,SW,235,5.0,0.0,84,0.00,,,0.00,WeatherTracker,2013-02-19 12:16:00,
2013-02-19 04:21:00,46.4,41.8,29.90,SW,226,2.0,0.0,84,0.00,,,0.00,WeatherTracker,2013-02-19 12:21:00,
2013-02-19 04:26:00,46.5,41.9,29.90,SSW,198,0.0,0.0,84,0.00,,,0.00,WeatherTracker,2013-02-19 12:26:00,
2013-02-19 04:31:00,46.6,41.7,29.90,SSW,197,3.0,0.0,83,0.00,,,0.00,WeatherTracker,2013-02-19 12:31:00,
2013-02-19 04:36:00,46.7,41.5,29.90,SSW,198,4.0,0.0,82,0.00,,,0.00,WeatherTracker,2013-02-19 12:36:00,
2013-02-19 04:41:00,46.8,41.6,29.90,SSW,205,4.0,0.0,82,0.00,,,0.00,WeatherTracker,2013-02-19 12:41:00,
2013-02-19 04:46:00,47.0,41.5,29.90,SW,235,5.0,0.0,81,0.00,,,0.00,WeatherTracker,2013-02-19 12:46:00,
2013-02-19 04:51:00,47.1,41.6,29.90,South,170,4.0,0.0,81,0.00,,,0.00,WeatherTracker,2013-02-19 12:51:00,
2013-02-19 04:56:00,47.2,41.7,29.90,SSW,204,2.0,0.0,81,0.00,,,0.00,WeatherTracker,2013-02-19 12:56:00,
2013-02-19 05:01:00,47.3,41.8,29.90,SW,215,1.0,0.0,81,0.00,,,0.00,WeatherTracker,2013-02-19 13:01:00,
2013-02-19 05:06:00,47.5,42.0,29.89,SSW,201,3.0,0.0,81,0.00,,,0.00,WeatherTracker,2013-02-19 13:06:00,
2013-02-19 05:11:00,47.6,42.1,29.89,SW,216,1.0,0.0,81,0.00,,,0.00,WeatherTracker,2013-02-19 13:11:00,
2013-02-19 05:16:00,47.7,42.2,29.89,SSW,198,3.0,0.0,81,0.00,,,0.00,WeatherTracker,2013-02-19 13:16:00,
2013-02-19 05:21:00,47.8,42.3,29.89,WSW,242,3.0,0.0,81,0.00,,,0.00,WeatherTracker,2013-02-19 13:21:00,
2013-02-19 05:26:00,47.9,42.4,29.89,SSW,200,6.0,0.0,81,0.00,,,0.00,WeatherTracker,2013-02-19 13:26:00,
2013-02-19 05:31:00,47.9,42.7,29.90,WSW,246,7.0,0.0,82,0.02,,,0.02,WeatherTracker,2013-02-19 13:31:00,
2013-02-19 05:36:00,47.5,42.9,29.89,SW,233,2.0,0.0,84,0.03,,,0.03,WeatherTracker,2013-02-19 13:36:00,
2013-02-19 05:41:00,47.3,43.3,29.89,WSW,239,6.0,0.0,86,0.03,,,0.03,WeatherTracker,2013-02-19 13:41:00,
2013-02-19 05:46:00,47.1,43.1,29.89,WSW,246,5.0,0.0,86,0.03,,,0.03,WeatherTracker,2013-02-19 13:46:00,
2013-02-19 05:51:00,47.1,43.4,29.89,SSW,201,4.0,0.0,87,0.03,,,0.03,WeatherTracker,2013-02-19 13:51:00,
2013-02-19 05:56:00,47.0,43.3,29.89,SSW,208,3.0,0.0,87,0.03,,,0.03,WeatherTracker,2013-02-19 13:56:00,
2013-02-19 06:01:00,46.9,42.9,29.88,WSW,249,4.0,0.0,86,0.03,,,0.03,WeatherTracker,2013-02-19 14:01:00,
2013-02-19 06:07:00,46.9,42.9,29.88,SSW,203,1.0,0.0,86,0.03,,,0.03,WeatherTracker,2013-02-19 14:07:00,
2013-02-19 06:12:00,46.9,42.9,29.88,South,178,7.0,0.0,86,0.03,,,0.03,WeatherTracker,2013-02-19 14:12:00,
2013-02-19 06:17:00,46.9,42.9,29.88,SSW,204,2.0,0.0,86,0.03,,,0.03,WeatherTracker,2013-02-19 14:17:00,
2013-02-19 06:22:00,46.8,42.8,29.87,SW,216,6.0,0.0,86,0.03,,,0.03,WeatherTracker,2013-02-19 14:22:00,
2013-02-19 06:27:00,46.8,42.8,29.87,WSW,239,8.0,0.0,86,0.03,,,0.03,WeatherTracker,2013-02-19 14:27:00,
2013-02-19 06:32:00,46.9,42.9,29.86,South,176,7.0,0.0,86,0.01,,,0.03,WeatherTracker,2013-02-19 14:32:00,
2013-02-19 06:37:00,47.0,43.0,29.86,SSW,200,4.0,0.0,86,0.00,,,0.03,WeatherTracker,2013-02-19 14:37:00,
2013-02-19 06:42:00,47.0,43.0,29.86,SW,226,4.0,0.0,86,0.00,,,0.03,WeatherTracker,2013-02-19 14:42:00,
2013-02-19 06:47:00,47.1,43.1,29.86,SW,235,2.0,0.0,86,0.00,,,0.03,WeatherTracker,2013-02-19 14:47:00,
2013-02-19 06:52:00,47.1,43.1,29.86,SW,232,2.0,0.0,86,0.00,,,0.03,WeatherTracker,2013-02-19 14:52:00,
2013-02-19 06:57:00,47.1,43.4,29.86,SW,218,5.0,0.0,87,0.00,,,0.03,WeatherTracker,2013-02-19 14:57:00,
2013-02-19 07:02:00,47.2,43.2,29.85,SW,216,12.0,0.0,86,0.00,,,0.03,WeatherTracker,2013-02-19 15:02:00,
2013-02-19 07:07:00,47.2,43.2,29.85,South,174,8.0,0.0,86,0.00,,,0.03,WeatherTracker,2013-02-19 15:07:00,
2013-02-19 07:12:00,47.3,43.0,29.85,South,181,5.0,0.0,85,0.00,,,0.03,WeatherTracker,2013-02-19 15:12:00,
2013-02-19 07:17:00,47.4,43.1,29.85,SSW,198,10.0,0.0,85,0.00,,,0.03,WeatherTracker,2013-02-19 15:17:00,
2013-02-19 07:22:00,47.4,43.4,29.85,SSW,207,5.0,0.0,86,0.00,,,0.03,WeatherTracker,2013-02-19 15:22:00,
2013-02-19 07:27:00,47.5,43.5,29.85,SSE,147,4.0,0.0,86,0.00,,,0.03,WeatherTracker,2013-02-19 15:27:00,
2013-02-19 07:32:00,47.4,43.1,29.84,South,184,8.0,0.0,85,0.00,,,0.03,WeatherTracker,2013-02-19 15:32:00,
2013-02-19 07:37:00,47.3,42.7,29.85,South,181,5.0,0.0,84,0.00,,,0.03,WeatherTracker,2013-02-19 15:37:00,
2013-02-19 07:42:00,47.3,42.4,29.84,SSE,162,4.0,0.0,83,0.00,,,0.03,WeatherTracker,2013-02-19 15:42:00,
2013-02-19 07:47:00,47.3,42.4,29.84,SW,217,5.0,0.0,83,0.00,,,0.03,WeatherTracker,2013-02-19 15:47:00,
2013-02-19 07:53:00,47.3,42.1,29.84,SSE,160,3.0,0.0,82,0.00,,,0.03,WeatherTracker,2013-02-19 15:53:00,
2013-02-19 07:58:00,47.4,42.2,29.84,South,187,7.0,0.0,82,0.00,,,0.03,WeatherTracker,2013-02-19 15:58:00,
2013-02-19 08:03:00,47.6,42.1,29.84,SW,232,8.0,0.0,81,0.00,,,0.03,WeatherTracker,2013-02-19 16:03:00,
2013-02-19 08:08:00,47.7,42.5,29.84,SW,225,2.0,0.0,82,0.00,,,0.03,WeatherTracker,2013-02-19 16:08:00,
2013-02-19 08:13:00,47.9,42.7,29.84,SW,231,2.0,0.0,82,0.00,,,0.03,WeatherTracker,2013-02-19 16:13:00,
2013-02-19 08:18:00,48.1,42.9,29.83,SSW,197,7.0,0.0,82,0.00,,,0.03,WeatherTracker,2013-02-19 16:18:00,
2013-02-19 08:23:00,48.3,43.4,29.83,SW,217,7.0,0.0,83,0.00,,,0.03,WeatherTracker,2013-02-19 16:23:00,
2013-02-19 08:28:00,48.5,43.6,29.83,SSE,167,4.0,0.0,83,0.00,,,0.03,WeatherTracker,2013-02-19 16:28:00,
2013-02-19 08:33:00,48.7,44.1,29.83,SW,229,3.0,0.0,84,0.00,,,0.03,WeatherTracker,2013-02-19 16:33:00,
2013-02-19 08:38:00,48.7,44.1,29.82,SSE,158,4.0,0.0,84,0.01,,,0.04,WeatherTracker,2013-02-19 16:38:00,
2013-02-19 08:43:00,48.4,44.1,29.82,SSE,156,3.0,0.0,85,0.02,,,0.05,WeatherTracker,2013-02-19 16:43:00,
2013-02-19 08:48:00,48.1,44.1,29.82,South,174,6.0,0.0,86,0.04,,,0.07,WeatherTracker,2013-02-19 16:48:00,
2013-02-19 08:53:00,47.9,43.9,29.82,SSW,207,4.0,0.0,86,0.05,,,0.08,WeatherTracker,2013-02-19 16:53:00,
2013-02-19 08:58:00,47.7,44.0,29.83,SW,236,7.0,0.0,87,0.06,,,0.09,WeatherTracker,2013-02-19 16:58:00,
2013-02-19 09:03:00,47.5,43.2,29.82,SW,236,14.0,0.0,85,0.07,,,0.10,WeatherTracker,2013-02-19 17:03:00,
2013-02-19 09:08:00,47.5,43.5,29.82,SW,235,6.0,0.0,86,0.08,,,0.11,WeatherTracker,2013-02-19 17:08:00,
2013-02-19 09:13:00,47.5,43.8,29.82,SW,236,6.0,0.0,87,0.09,,,0.12,WeatherTracker,2013-02-19 17:13:00,
2013-02-19 09:18:00,47.4,43.7,29.82,SW,228,12.0,0.0,87,0.09,,,0.12,WeatherTracker,2013-02-19 17:18:00,
2013-02-19 09:23:00,46.9,43.2,29.83,WSW,258,5.0,0.0,87,0.09,,,0.12,WeatherTracker,2013-02-19 17:23:00,
2013-02-19 09:28:00,46.7,43.0,29.82,WNW,291,2.0,0.0,87,0.10,,,0.13,WeatherTracker,2013-02-19 17:28:00,
2013-02-19 09:33:00,46.3,42.9,29.82,West,263,7.0,0.0,88,0.11,,,0.14,WeatherTracker,2013-02-19 17:33:00,
2013-02-19 09:38:00,46.0,42.6,29.82,SW,226,2.0,0.0,88,0.12,,,0.16,WeatherTracker,2013-02-19 17:38:00,
2013-02-19 09:44:00,45.5,42.2,29.82,SW,236,11.0,0.0,88,0.15,,,0.20,WeatherTracker,2013-02-19 17:44:00,
2013-02-19 09:48:00,45.2,42.2,29.82,WSW,248,14.0,0.0,89,0.15,,,0.22,WeatherTracker,2013-02-19 17:48:00,
2013-02-19 09:54:00,45.2,42.2,29.81,WSW,249,3.0,0.0,89,0.15,,,0.23,WeatherTracker,2013-02-19 17:54:00,
2013-02-19 09:59:00,45.3,42.5,29.82,West,277,4.0,0.0,90,0.15,,,0.24,WeatherTracker,2013-02-19 17:59:00,
2013-02-19 10:04:00,45.3,42.5,29.82,WSW,245,3.0,0.0,90,0.15,,,0.25,WeatherTracker,2013-02-19 18:04:00,
2013-02-19 10:09:00,45.0,42.0,29.82,West,274,6.0,0.0,89,0.15,,,0.26,WeatherTracker,2013-02-19 18:09:00,
2013-02-19 10:14:00,44.9,41.9,29.82,WSW,238,9.0,0.0,89,0.15,,,0.27,WeatherTracker,2013-02-19 18:14:00,
2013-02-19 10:19:00,44.8,41.5,29.82,WNW,295,8.0,0.0,88,0.16,,,0.28,WeatherTracker,2013-02-19 18:19:00,
2013-02-19 10:24:00,44.8,41.5,29.82,SW,221,3.0,0.0,88,0.18,,,0.30,WeatherTracker,2013-02-19 18:24:00,
2013-02-19 10:29:00,44.7,41.4,29.82,WSW,243,3.0,0.0,88,0.18,,,0.31,WeatherTracker,2013-02-19 18:29:00,
2013-02-19 10:34:00,44.7,41.1,29.82,West,259,6.0,0.0,87,0.18,,,0.32,WeatherTracker,2013-02-19 18:34:00,
2013-02-19 10:39:00,44.8,41.5,29.82,WSW,246,3.0,0.0,88,0.16,,,0.33,WeatherTracker,2013-02-19 18:39:00,
2013-02-19 10:44:00,44.9,41.6,29.82,West,269,0.0,0.0,88,0.14,,,0.34,WeatherTracker,2013-02-19 18:44:00,
2013-02-19 10:49:00,45.0,41.7,29.81,WNW,285,1.0,0.0,88,0.13,,,0.35,WeatherTracker,2013-02-19 18:49:00,
2013-02-19 10:54:00,44.9,41.6,29.81,SW,225,2.0,0.0,88,0.12,,,0.35,WeatherTracker,2013-02-19 18:54:00,
2013-02-19 10:59:00,45.0,41.7,29.82,WSW,239,7.0,0.0,88,0.11,,,0.35,WeatherTracker,2013-02-19 18:59:00,
2013-02-19 11:04:00,45.3,41.7,29.81,West,281,6.0,0.0,87,0.10,,,0.35,WeatherTracker,2013-02-19 19:04:00,
2013-02-19 11:09:00,45.6,41.4,29.81,SW,229,5.0,0.0,85,0.08,,,0.35,WeatherTracker,2013-02-19 19:09:00,
2013-02-19 11:14:00,45.9,41.0,29.81,WSW,250,6.0,0.0,83,0.08,,,0.35,WeatherTracker,2013-02-19 19:14:00,
2013-02-19 11:19:00,46.1,40.9,29.81,WNW,291,7.0,0.0,82,0.07,,,0.35,WeatherTracker,2013-02-19 19:19:00,
2013-02-19 11:24:00,46.3,41.4,29.81,WSW,255,4.0,0.0,83,0.05,,,0.35,WeatherTracker,2013-02-19 19:24:00,
2013-02-19 11:29:00,46.3,40.8,29.81,WSW,238,10.0,0.0,81,0.04,,,0.35,WeatherTracker,2013-02-19 19:29:00,
2013-02-19 11:34:00,46.3,40.8,29.81,WNW,288,3.0,0.0,81,0.03,,,0.35,WeatherTracker,2013-02-19 19:34:00,
2013-02-19 11:39:00,46.5,41.3,29.80,WSW,257,2.0,0.0,82,0.02,,,0.35,WeatherTracker,2013-02-19 19:39:00,
2013-02-19 11:44:00,46.6,41.4,29.80,West,260,1.0,0.0,82,0.01,,,0.35,WeatherTracker,2013-02-19 19:44:00,
2013-02-19 11:49:00,46.7,41.2,29.80,West,275,4.0,0.0,81,0.00,,,0.35,WeatherTracker,2013-02-19 19:49:00,
2013-02-19 11:55:00,46.1,41.2,29.81,WSW,246,16.0,0.0,83,0.03,,,0.38,WeatherTracker,2013-02-19 19:55:00,
2013-02-19 12:00:00,45.1,40.6,29.80,WSW,244,16.0,0.0,84,0.03,,,0.38,WeatherTracker,2013-02-19 20:00:00,
2013-02-19 12:05:00,44.6,39.8,29.80,WNW,286,7.0,0.0,83,0.03,,,0.38,WeatherTracker,2013-02-19 20:05:00,
2013-02-19 12:10:00,44.5,39.7,29.80,WSW,252,10.0,0.0,83,0.03,,,0.38,WeatherTracker,2013-02-19 20:10:00,
2013-02-19 12:15:00,44.6,39.1,29.80,WSW,253,6.0,0.0,81,0.03,,,0.38,WeatherTracker,2013-02-19 20:15:00,
2013-02-19 12:20:00,44.7,39.5,29.80,WSW,239,6.0,0.0,82,0.03,,,0.38,WeatherTracker,2013-02-19 20:20:00,
2013-02-19 12:25:00,44.6,39.5,29.81,SW,235,3.0,0.0,82,0.03,,,0.38,WeatherTracker,2013-02-19 20:25:00,
2013-02-19 12:30:00,44.5,39.0,29.81,West,273,10.0,0.0,81,0.03,,,0.38,WeatherTracker,2013-02-19 20:30:00,
2013-02-19 12:35:00,44.5,39.4,29.81,WNW,292,9.0,0.0,82,0.03,,,0.38,WeatherTracker,2013-02-19 20:35:00,
2013-02-19 12:40:00,44.2,38.7,29.81,WNW,286,8.0,0.0,81,0.04,,,0.39,WeatherTracker,2013-02-19 20:40:00,
2013-02-19 12:45:00,44.0,38.6,29.80,WSW,252,9.0,0.0,81,0.04,,,0.39,WeatherTracker,2013-02-19 20:45:00,
2013-02-19 12:50:00,43.4,38.6,29.81,WNW,293,7.0,0.0,83,0.06,,,0.41,WeatherTracker,2013-02-19 20:50:00,
2013-02-19 12:55:00,43.0,38.8,29.80,WNW,288,5.0,0.0,85,0.04,,,0.42,WeatherTracker,2013-02-19 20:55:00,
2013-02-19 13:00:00,42.6,38.1,29.80,WNW,284,2.0,0.0,84,0.04,,,0.42,WeatherTracker,2013-02-19 21:00:00,
2013-02-19 13:05:00,42.5,38.0,29.79,WNW,295,5.0,0.0,84,0.05,,,0.43,WeatherTracker,2013-02-19 21:05:00,
2013-02-19 13:10:00,42.5,37.7,29.79,WSW,248,6.0,0.0,83,0.05,,,0.43,WeatherTracker,2013-02-19 21:10:00,
2013-02-19 13:15:00,43.0,38.2,29.78,WSW,249,4.0,0.0,83,0.05,,,0.43,WeatherTracker,2013-02-19 21:15:00,
2013-02-19 13:20:00,43.6,39.1,29.78,West,278,1.0,0.0,84,0.05,,,0.43,WeatherTracker,2013-02-19 21:20:00,
2013-02-19 13:25:00,44.6,40.1,29.78,WNW,297,3.0,0.0,84,0.05,,,0.43,WeatherTracker,2013-02-19 21:25:00,
2013-02-19 13:30:00,44.9,39.4,29.78,SW,236,4.0,0.0,81,0.05,,,0.43,WeatherTracker,2013-02-19 21:30:00,
2013-02-19 13:35:00,45.9,41.0,29.78,WNW,285,8.0,0.0,83,0.05,,,0.43,WeatherTracker,2013-02-19 21:35:00,
2013-02-19 13:40:00,45.9,39.4,29.78,WSW,249,10.0,0.0,78,0.04,,,0.43,WeatherTracker,2013-02-19 21:40:00,
2013-02-19 13:45:00,46.0,39.9,29.78,West,281,11.0,0.0,79,0.04,,,0.43,WeatherTracker,2013-02-19 21:45:00,
2013-02-19 13:50:00,45.9,39.8,29.78,SW,231,6.0,0.0,79,0.02,,,0.43,WeatherTracker,2013-02-19 21:50:00,
2013-02-19 13:55:00,45.5,38.4,29.77,SW,236,3.0,0.0,76,0.01,,,0.43,WeatherTracker,2013-02-19 21:55:00,
2013-02-19 14:00:00,45.5,38.7,29.77,West,276,1.0,0.0,77,0.01,,,0.43,WeatherTracker,2013-02-19 22:00:00,
2013-02-19 14:06:00,45.5,38.7,29.77,WSW,250,2.0,0.0,77,0.00,,,0.43,WeatherTracker,2013-02-19 22:06:00,
2013-02-19 14:11:00,45.6,39.1,29.77,West,274,4.0,0.0,78,0.00,,,0.43,WeatherTracker,2013-02-19 22:11:00,
2013-02-19 14:16:00,45.9,39.8,29.77,WSW,248,8.0,0.0,79,0.00,,,0.43,WeatherTracker,2013-02-19 22:16:00,
2013-02-19 14:21:00,46.6,40.1,29.77,West,277,9.0,0.0,78,0.00,,,0.43,WeatherTracker,2013-02-19 22:21:00,
2013-02-19 14:26:00,46.9,39.1,29.76,WNW,286,3.0,0.0,74,0.00,,,0.43,WeatherTracker,2013-02-19 22:26:00,
2013-02-19 14:31:00,47.4,38.5,29.77,WNW,295,13.0,0.0,71,0.00,,,0.43,WeatherTracker,2013-02-19 22:31:00,
2013-02-19 14:36:00,47.4,37.4,29.77,WNW,291,13.0,0.0,68,0.00,,,0.43,WeatherTracker,2013-02-19 22:36:00,
2013-02-19 14:41:00,47.2,35.7,29.77,West,269,16.0,0.0,64,0.00,,,0.43,WeatherTracker,2013-02-19 22:41:00,
2013-02-19 14:46:00,47.5,36.3,29.77,West,273,9.0,0.0,65,0.00,,,0.43,WeatherTracker,2013-02-19 22:46:00,
2013-02-19 14:51:00,47.7,36.1,29.77,SW,236,8.0,0.0,64,0.00,,,0.43,WeatherTracker,2013-02-19 22:51:00,
2013-02-19 14:56:00,47.5,36.3,29.77,West,278,6.0,0.0,65,0.00,,,0.43,WeatherTracker,2013-02-19 22:56:00,
2013-02-19 15:01:00,47.6,36.0,29.76,West,278,8.0,0.0,64,0.00,,,0.43,WeatherTracker,2013-02-19 23:01:00,
2013-02-19 15:06:00,47.3,34.5,29.76,WSW,249,11.0,0.0,61,0.00,,,0.43,WeatherTracker,2013-02-19 23:06:00,
2013-02-19 15:11:00,47.2,34.9,29.76,WSW,255,6.0,0.0,62,0.00,,,0.43,WeatherTracker,2013-02-19 23:11:00,
2013-02-19 15:16:00,47.6,36.0,29.76,WSW,251,9.0,0.0,64,0.00,,,0.43,WeatherTracker,2013-02-19 23:16:00,
2013-02-19 15:21:00,47.5,35.9,29.76,NW,320,4.0,0.0,64,0.00,,,0.43,WeatherTracker,2013-02-19 23:21:00,
2013-02-19 15:26:00,47.6,36.0,29.76,West,281,8.0,0.0,64,0.00,,,0.43,WeatherTracker,2013-02-19 23:26:00,
2013-02-19 15:31:00,47.5,35.5,29.76,WNW,290,13.0,0.0,63,0.00,,,0.43,WeatherTracker,2013-02-19 23:31:00,
2013-02-19 15:36:00,47.6,36.4,29.76,WNW,293,6.0,0.0,65,0.00,,,0.43,WeatherTracker,2013-02-19 23:36:00,
2013-02-19 15:41:00,47.6,36.0,29.76,WSW,239,15.0,0.0,64,0.00,,,0.43,WeatherTracker,2013-02-19 23:41:00,
2013-02-19 15:46:00,47.3,35.7,29.76,West,271,9.0,0.0,64,0.00,,,0.43,WeatherTracker,2013-02-19 23:46:00,
2013-02-19 15:51:00,47.5,36.3,29.76,WNW,290,11.0,0.0,65,0.00,,,0.43,WeatherTracker,2013-02-19 23:51:00,
2013-02-19 15:56:00,47.3,36.9,29.76,West,277,9.0,0.0,67,0.00,,,0.43,WeatherTracker,2013-02-19 23:56:00,
2013-02-19 16:01:00,47.1,36.3,29.76,WNW,285,12.0,0.0,66,0.00,,,0.43,WeatherTracker,2013-02-20 00:01:00,
2013-02-19 16:07:00,46.4,36.0,29.76,NNW,342,8.0,0.0,67,0.00,,,0.43,WeatherTracker,2013-02-20 00:07:00,
2013-02-19 16:12:00,46.2,36.2,29.76,WSW,239,13.0,0.0,68,0.00,,,0.43,WeatherTracker,2013-02-20 00:12:00,
2013-02-19 16:17:00,46.1,35.8,29.75,West,280,10.0,0.0,67,0.00,,,0.43,WeatherTracker,2013-02-20 00:17:00,
2013-02-19 16:22:00,46.2,36.2,29.75,WNW,285,9.0,0.0,68,0.00,,,0.43,WeatherTracker,2013-02-20 00:22:00,
2013-02-19 16:27:00,46.3,36.3,29.75,SW,223,11.0,0.0,68,0.00,,,0.43,WeatherTracker,2013-02-20 00:27:00,
2013-02-19 16:32:00,46.5,35.8,29.75,WNW,299,13.0,0.0,66,0.00,,,0.43,WeatherTracker,2013-02-20 00:32:00,
2013-02-19 16:37:00,46.5,35.8,29.75,WSW,250,6.0,0.0,66,0.00,,,0.43,WeatherTracker,2013-02-20 00:37:00,
2013-02-19 16:42:00,46.5,36.5,29.75,WSW,245,13.0,0.0,68,0.00,,,0.43,WeatherTracker,2013-02-20 00:42:00,
2013-02-19 16:47:00,46.3,36.7,29.75,WNW,283,6.0,0.0,69,0.00,,,0.43,WeatherTracker,2013-02-20 00:47:00,
2013-02-19 16:52:00,46.3,37.1,29.75,West,271,10.0,0.0,70,0.00,,,0.43,WeatherTracker,2013-02-20 00:52:00,
2013-02-19 16:57:00,46.2,37.0,29.75,WSW,249,4.0,0.0,70,0.00,,,0.43,WeatherTracker,2013-02-20 00:57:00,
2013-02-19 17:02:00,46.2,37.0,29.75,WNW,293,6.0,0.0,70,0.00,,,0.43,WeatherTracker,2013-02-20 01:02:00,
2013-02-19 17:07:00,46.1,36.5,29.75,WSW,255,12.0,0.0,69,0.00,,,0.43,WeatherTracker,2013-02-20 01:07:00,
2013-02-19 17:12:00,46.0,36.4,29.75,SW,231,8.0,0.0,69,0.00,,,0.43,WeatherTracker,2013-02-20 01:12:00,
2013-02-19 17:17:00,46.0,36.4,29.75,WSW,238,13.0,0.0,69,0.00,,,0.43,WeatherTracker,2013-02-20 01:17:00,
2013-02-19 17:22:00,45.9,36.3,29.75,West,279,9.0,0.0,69,0.00,,,0.43,WeatherTracker,2013-02-20 01:22:00,
2013-02-19 17:27:00,45.8,36.2,29.75,WNW,284,10.0,0.0,69,0.00,,,0.43,WeatherTracker,2013-02-20 01:27:00,
2013-02-19 17:32:00,45.6,35.3,29.74,WNW,290,9.0,0.0,67,0.00,,,0.43,WeatherTracker,2013-02-20 01:32:00,
2013-02-19 17:37:00,45.5,35.2,29.75,WNW,286,10.0,0.0,67,0.00,,,0.43,WeatherTracker,2013-02-20 01:37:00,
2013-02-19 17:42:00,45.4,35.1,29.75,West,264,7.0,0.0,67,0.00,,,0.43,WeatherTracker,2013-02-20 01:42:00,
2013-02-19 17:47:00,45.3,35.0,29.75,West,276,7.0,0.0,67,0.00,,,0.43,WeatherTracker,2013-02-20 01:47:00,
2013-02-19 17:52:00,45.2,35.3,29.75,WNW,292,14.0,0.0,68,0.00,,,0.43,WeatherTracker,2013-02-20 01:52:00,
2013-02-19 17:57:00,45.1,35.2,29.75,West,264,7.0,0.0,68,0.00,,,0.43,WeatherTracker,2013-02-20 01:57:00,
2013-02-19 18:02:00,45.0,35.1,29.75,WNW,285,12.0,0.0,68,0.00,,,0.43,WeatherTracker,2013-02-20 02:02:00,
2013-02-19 18:07:00,44.9,35.0,29.75,WNW,288,10.0,0.0,68,0.00,,,0.43,WeatherTracker,2013-02-20 02:07:00,
2013-02-19 18:12:00,44.8,34.9,29.75,NW,311,7.0,0.0,68,0.00,,,0.43,WeatherTracker,2013-02-20 02:12:00,
2013-02-19 18:17:00,44.8,34.5,29.75,WNW,285,7.0,0.0,67,0.00,,,0.43,WeatherTracker,2013-02-20 02:17:00,
2013-02-19 18:22:00,44.7,34.8,29.76,WSW,256,8.0,0.0,68,0.00,,,0.43,WeatherTracker,2013-02-20 02:22:00,
2013-02-19 18:27:00,44.6,34.7,29.75,West,277,7.0,0.0,68,0.00,,,0.43,WeatherTracker,2013-02-20 02:27:00,
2013-02-19 18:33:00,44.5,34.6,29.76,WNW,293,13.0,0.0,68,0.00,,,0.43,WeatherTracker,2013-02-20 02:33:00,
2013-02-19 18:38:00,44.4,34.9,29.76,West,274,4.0,0.0,69,0.00,,,0.43,WeatherTracker,2013-02-20 02:38:00,
2013-02-19 18:43:00,44.4,34.9,29.76,WSW,252,9.0,0.0,69,0.00,,,0.43,WeatherTracker,2013-02-20 02:43:00,
2013-02-19 18:48:00,44.3,34.8,29.76,WNW,290,6.0,0.0,69,0.00,,,0.43,WeatherTracker,2013-02-20 02:48:00,
2013-02-19 18:53:00,44.2,35.0,29.76,West,278,7.0,0.0,70,0.00,,,0.43,WeatherTracker,2013-02-20 02:53:00,
2013-02-19 18:58:00,44.1,35.3,29.76,WSW,244,6.0,0.0,71,0.00,,,0.43,WeatherTracker,2013-02-20 02:58:00,
2013-02-19 19:03:00,44.1,35.3,29.76,West,278,2.0,0.0,71,0.00,,,0.43,WeatherTracker,2013-02-20 03:03:00,
2013-02-19 19:08:00,44.0,35.6,29.76,West,276,2.0,0.0,72,0.00,,,0.43,WeatherTracker,2013-02-20 03:08:00,
2013-02-19 19:13:00,43.9,35.5,29.76,West,281,13.0,0.0,72,0.00,,,0.43,WeatherTracker,2013-02-20 03:13:00,
2013-02-19 19:18:00,43.9,35.1,29.76,West,278,5.0,0.0,71,0.00,,,0.43,WeatherTracker,2013-02-20 03:18:00,
2013-02-19 19:23:00,43.8,35.0,29.76,NW,309,12.0,0.0,71,0.00,,,0.43,WeatherTracker,2013-02-20 03:23:00,
2013-02-19 19:28:00,43.9,35.1,29.76,WSW,253,8.0,0.0,71,0.00,,,0.43,WeatherTracker,2013-02-20 03:28:00,
2013-02-19 19:33:00,43.9,35.5,29.76,WNW,284,4.0,0.0,72,0.00,,,0.43,WeatherTracker,2013-02-20 03:33:00,
2013-02-19 19:38:00,43.9,35.5,29.77,WNW,285,4.0,0.0,72,0.00,,,0.43,WeatherTracker,2013-02-20 03:38:00,
2013-02-19 19:43:00,43.9,35.5,29.77,WNW,302,6.0,0.0,72,0.00,,,0.43,WeatherTracker,2013-02-20 03:43:00,
2013-02-19 19:48:00,43.8,35.4,29.77,WNW,299,6.0,0.0,72,0.00,,,0.43,WeatherTracker,2013-02-20 03:48:00,
2013-02-19 19:53:00,43.8,35.4,29.77,WNW,300,5.0,0.0,72,0.00,,,0.43,WeatherTracker,2013-02-20 03:53:00,
2013-02-19 19:58:00,43.8,35.4,29.76,WNW,297,7.0,0.0,72,0.00,,,0.43,WeatherTracker,2013-02-20 03:58:00,
2013-02-19 20:03:00,43.8,35.4,29.77,WNW,295,9.0,0.0,72,0.00,,,0.43,WeatherTracker,2013-02-20 04:03:00,
2013-02-19 20:08:00,43.9,35.5,29.77,West,271,3.0,0.0,72,0.00,,,0.43,WeatherTracker,2013-02-20 04:08:00,
2013-02-19 20:14:00,43.8,35.0,29.77,WNW,292,7.0,0.0,71,0.00,,,0.43,WeatherTracker,2013-02-20 04:14:00,
2013-02-19 20:19:00,43.8,35.4,29.77,WNW,285,5.0,0.0,72,0.00,,,0.43,WeatherTracker,2013-02-20 04:19:00,
2013-02-19 20:24:00,43.7,34.9,29.77,West,267,1.0,0.0,71,0.00,,,0.43,WeatherTracker,2013-02-20 04:24:00,
2013-02-19 20:29:00,43.8,35.0,29.77,WNW,285,9.0,0.0,71,0.00,,,0.43,WeatherTracker,2013-02-20 04:29:00,
2013-02-19 20:34:00,43.8,35.4,29.77,WNW,301,6.0,0.0,72,0.00,,,0.43,WeatherTracker,2013-02-20 04:34:00,
2013-02-19 20:39:00,43.7,34.9,29.78,NW,305,6.0,0.0,71,0.00,,,0.43,WeatherTracker,2013-02-20 04:39:00,
2013-02-19 20:44:00,43.8,34.7,29.78,NW,314,4.0,0.0,70,0.00,,,0.43,WeatherTracker,2013-02-20 04:44:00,
2013-02-19 20:49:00,43.8,35.0,29.78,WNW,301,7.0,0.0,71,0.00,,,0.43,WeatherTracker,2013-02-20 04:49:00,
2013-02-19 20:54:00,43.8,35.0,29.78,WNW,302,4.0,0.0,71,0.00,,,0.43,WeatherTracker,2013-02-20 04:54:00,
2013-02-19 20:59:00,43.7,34.9,29.78,NNW,340,6.0,0.0,71,0.00,,,0.43,WeatherTracker,2013-02-20 04:59:00,
2013-02-19 21:00:00,43.7,34.9,29.78,WNW,286,4.0,0.0,71,0.00,,,0.43,WeatherTracker,2013-02-20 05:00:00,
2013-02-19 21:05:00,43.7,34.6,29.79,WNW,301,5.0,0.0,70,0.00,,,0.43,WeatherTracker,2013-02-20 05:05:00,
2013-02-19 21:10:00,43.7,34.6,29.79,NW,305,5.0,0.0,70,0.00,,,0.43,WeatherTracker,2013-02-20 05:10:00,
2013-02-19 21:15:00,43.7,34.9,29.79,WNW,302,5.0,0.0,71,0.00,,,0.43,WeatherTracker,2013-02-20 05:15:00,
2013-02-19 21:20:00,43.6,34.8,29.79,West,264,3.0,0.0,71,0.00,,,0.43,WeatherTracker,2013-02-20 05:20:00,
2013-02-19 21:25:00,43.6,34.8,29.79,WNW,296,3.0,0.0,71,0.00,,,0.43,WeatherTracker,2013-02-20 05:25:00,
2013-02-19 21:30:00,43.6,34.5,29.79,NW,318,2.0,0.0,70,0.00,,,0.43,WeatherTracker,2013-02-20 05:30:00,
2013-02-19 21:35:00,43.6,34.1,29.80,NW,305,5.0,0.0,69,0.00,,,0.43,WeatherTracker,2013-02-20 05:35:00,
2013-02-19 21:40:00,43.6,33.7,29.80,WNW,299,4.0,0.0,68,0.00,,,0.43,WeatherTracker,2013-02-20 05:40:00,
2013-02-19 21:45:00,43.5,33.7,29.80,WNW,288,9.0,0.0,68,0.00,,,0.43,WeatherTracker,2013-02-20 05:45:00,
2013-02-19 21:50:00,43.6,33.4,29.80,WNW,294,6.0,0.0,67,0.00,,,0.43,WeatherTracker,2013-02-20 05:50:00,
2013-02-19 21:56:00,43.6,33.4,29.80,WNW,293,8.0,0.0,67,0.00,,,0.43,WeatherTracker,2013-02-20 05:56:00,
2013-02-19 22:01:00,43.5,33.3,29.80,West,281,5.0,0.0,67,0.00,,,0.43,WeatherTracker,2013-02-20 06:01:00,
2013-02-19 22:06:00,43.5,33.3,29.80,WNW,295,7.0,0.0,67,0.00,,,0.43,WeatherTracker,2013-02-20 06:06:00,
2013-02-19 22:11:00,43.4,33.6,29.80,West,271,6.0,0.0,68,0.00,,,0.43,WeatherTracker,2013-02-20 06:11:00,
2013-02-19 22:16:00,43.3,33.5,29.80,West,273,9.0,0.0,68,0.00,,,0.43,WeatherTracker,2013-02-20 06:16:00,
2013-02-19 22:21:00,43.3,33.5,29.80,NW,323,4.0,0.0,68,0.00,,,0.43,WeatherTracker,2013-02-20 06:21:00,
2013-02-19 22:26:00,43.2,33.4,29.81,West,278,6.0,0.0,68,0.00,,,0.43,WeatherTracker,2013-02-20 06:26:00,
2013-02-19 22:31:00,43.2,33.0,29.81,WNW,290,8.0,0.0,67,0.00,,,0.43,WeatherTracker,2013-02-20 06:31:00,
2013-02-19 22:36:00,43.3,33.1,29.81,West,271,8.0,0.0,67,0.00,,,0.43,WeatherTracker,2013-02-20 06:36:00,
2013-02-19 22:41:00,43.2,33.0,29.81,NW,311,8.0,0.0,67,0.00,,,0.43,WeatherTracker,2013-02-20 06:41:00,
2013-02-19 22:46:00,43.1,33.3,29.81,NW,311,6.0,0.0,68,0.00,,,0.43,WeatherTracker,2013-02-20 06:46:00,
2013-02-19 22:51:00,43.2,33.0,29.81,WNW,302,3.0,0.0,67,0.00,,,0.43,WeatherTracker,2013-02-20 06:51:00,
2013-02-19 22:56:00,43.1,33.3,29.82,NW,305,3.0,0.0,68,0.00,,,0.43,WeatherTracker,2013-02-20 06:56:00,
2013-02-19 23:01:00,43.0,33.2,29.82,NW,311,3.0,0.0,68,0.00,,,0.43,WeatherTracker,2013-02-20 07:01:00,
2013-02-19 23:06:00,43.0,32.8,29.82,NW,305,6.0,0.0,67,0.00,,,0.43,WeatherTracker,2013-02-20 07:06:00,
2013-02-19 23:11:00,43.2,33.0,29.82,NW,315,6.0,0.0,67,0.00,,,0.43,WeatherTracker,2013-02-20 07:11:00,
2013-02-19 23:16:00,43.3,32.7,29.82,WNW,302,6.0,0.0,66,0.00,,,0.43,WeatherTracker,2013-02-20 07:16:00,
2013-02-19 23:21:00,43.2,33.0,29.82,NW,306,5.0,0.0,67,0.00,,,0.43,WeatherTracker,2013-02-20 07:21:00,
2013-02-19 23:26:00,43.2,33.0,29.83,NW,319,7.0,0.0,67,0.00,,,0.43,WeatherTracker,2013-02-20 07:26:00,
2013-02-19 23:31:00,43.2,33.0,29.83,WNW,294,4.0,0.0,67,0.00,,,0.43,WeatherTracker,2013-02-20 07:31:00,
2013-02-19 23:36:00,43.2,33.0,29.83,North,354,4.0,0.0,67,0.00,,,0.43,WeatherTracker,2013-02-20 07:36:00,
2013-02-19 23:42:00,43.1,32.9,29.83,WNW,295,4.0,0.0,67,0.00,,,0.43,WeatherTracker,2013-02-20 07:42:00,
2013-02-19 23:47:00,43.0,33.2,29.83,WNW,303,2.0,0.0,68,0.00,,,0.43,WeatherTracker,2013-02-20 07:47:00,
2013-02-19 23:52:00,43.0,33.2,29.83,WNW,295,4.0,0.0,68,0.00,,,0.43,WeatherTracker,2013-02-20 07:52:00,
2013-02-19 23:57:00,42.9,33.1,29.83,WNW,295,3.0,0.0,68,0.00,,,0.43,WeatherTracker,2013-02-20 07:57:00,